Weather History for Falls City, NE

Change the Weather History Date:

Friday, July 6, 2012

  Actual Average Record
Temperature  
Mean Temperature 88 °F -  
Max Temperature 102 °F 88 °F 102 °F (1954)
Min Temperature 77 °F 63 °F 52 °F (1967)
Cooling Degree Days 24    
Growing Degree Days 38 (Base 50)    
Moisture  
Dew Point 67 °F    
Average Humidity 50    
Maximum Humidity 69    
Minimum Humidity 31    
Precipitation  
Precipitation 0.00 in - - ()
Sea Level Pressure  
Sea Level Pressure 29.93 in    
Wind  
Wind Speed 6 mph (South)    
Max Wind Speed 12 mph    
Max Gust Speed -    
Visibility 9 miles    
Events      
Averages and records for this station are not official NWS values.
T = Trace of Precipitation, MM = Missing Value Source: NWS Daily Summary

Daily Weather History Graph

Daily Weather History Graph

Search for Another Location

Airport:

Trip Planner

Search our weather history database for the weather conditions in past years. The results will help you decide how hot, cold, wet, or windy it might be!

Date:

Astronomy

Jul. 06, 2012 Rise Set
Actual Time 6:00 AM CDT 8:54 PM CDT
Civil Twilight 5:27 AM CDT 9:26 PM CDT
Nautical Twilight 4:46 AM CDT 10:07 PM CDT
Astronomical Twilight 3:59 AM CDT 10:54 PM CDT
Moon 10:43 PM CDT (7/6) 9:20 AM CDT (7/6)
Length of Visible Light 15h 59m
Length of Day
14h 54m
Waning Gibbous, 89% of the Moon is Illuminated
Jul 6
Waning Gibbous
Jul 10
Last Quarter
Jul 18
New
Jul 26
First Quarter
Aug 1
Full

Hourly Weather History & Observations

Time (CDT) Temp. Heat Index Dew Point Humidity Pressure Visibility Wind Dir Wind Speed Gust Speed Precip Events Conditions
12:53 AM 81.0 °F 83.0 °F 66.0 °F 60% 29.91 in 10.0 mi South 5.8 mph - N/A   Clear
1:53 AM 79.0 °F - 64.9 °F 62% 29.92 in 10.0 mi South 6.9 mph - N/A   Clear
2:53 AM 80.1 °F 81.7 °F 64.0 °F 58% 29.92 in 10.0 mi SSW 8.1 mph - N/A   Clear
3:53 AM 78.1 °F - 64.0 °F 62% 29.92 in 10.0 mi South 5.8 mph - N/A   Clear
4:53 AM 78.1 °F - 64.0 °F 62% 29.92 in 10.0 mi South 3.5 mph - N/A   Clear
5:53 AM 77.0 °F - 64.0 °F 64% 29.93 in 10.0 mi South 4.6 mph - N/A   Clear
6:53 AM 77.0 °F - 64.9 °F 66% 29.93 in 10.0 mi SSW 5.8 mph - N/A   Clear
7:53 AM 80.1 °F 81.9 °F 64.9 °F 60% 29.95 in 10.0 mi South 4.6 mph - N/A   Clear
8:53 AM 86.0 °F 88.8 °F 66.9 °F 53% 29.96 in 10.0 mi Variable 3.5 mph - N/A   Clear
9:53 AM 91.4 °F 94.0 °F 66.2 °F 43% 29.99 in 10.0 mi SSW 6.9 mph - N/A   Clear
10:53 AM 93.9 °F 98.6 °F 68.0 °F 43% 29.96 in 10.0 mi South 6.9 mph - N/A   Clear
11:53 AM 96.1 °F 102.9 °F 70.0 °F 43% 29.94 in 8.0 mi SSE 10.4 mph - N/A   Clear
12:53 PM 97.0 °F 101.0 °F 66.9 °F 37% 29.93 in 10.0 mi SSE 11.5 mph - N/A   Clear
1:53 PM 99.0 °F 104.2 °F 68.0 °F 36% 29.92 in 10.0 mi SSE 9.2 mph - N/A   Clear
2:29 PM 100.4 °F 103.6 °F 64.4 °F 31% 29.95 in 5.0 mi South 6.9 mph - N/A   Haze
2:53 PM 100.0 °F 103.6 °F 64.9 °F 32% 29.92 in 10.0 mi Variable 4.6 mph - N/A   Clear
3:32 PM 100.4 °F 103.6 °F 64.4 °F 31% 29.95 in 9.0 mi South 4.6 mph - N/A   Partly Cloudy
3:53 PM 100.0 °F 103.6 °F 64.9 °F 32% 29.91 in 10.0 mi SSE 8.1 mph - N/A   Partly Cloudy
4:53 PM 100.0 °F 104.9 °F 66.9 °F 34% 29.90 in 10.0 mi SSE 6.9 mph - N/A   Clear
5:53 PM 100.0 °F 103.6 °F 64.9 °F 32% 29.89 in 10.0 mi SSW 6.9 mph - N/A   Clear
6:53 PM 97.0 °F 105.5 °F 72.0 °F 44% 29.88 in 5.0 mi SE 4.6 mph - N/A   Haze
7:53 PM 93.0 °F 109.7 °F 79.0 °F 63% 29.89 in 8.0 mi Calm Calm - N/A   Clear
8:53 PM 89.1 °F 98.0 °F 73.9 °F 61% 29.90 in 10.0 mi East 3.5 mph - N/A   Clear
9:53 PM 84.9 °F 91.4 °F 73.0 °F 67% 29.92 in 10.0 mi ESE 4.6 mph - N/A   Clear
10:53 PM 82.9 °F 88.0 °F 72.0 °F 69% 29.93 in 10.0 mi SSE 4.6 mph - N/A   Clear
11:53 PM 81.0 °F 84.1 °F 69.1 °F 67% 29.93 in 10.0 mi SE 4.6 mph - N/A   Clear